Date String (YYYY-MM-DD hh:mm:ss) UTC,Instrument flags,Ambient pressure (hPa),Sample flow (lpm),Bypass flow (lpm),Sample temperature (°C),Ambient temperature (°C),ASC tube jacket temperature (°C),LED temperature (°C),Box temperature (°C),Sample RH (%),Span deviation,Mass concentration (μg/m³),Mass concentration (μg/m³),Mass concentration (μg/m³)
DateTimeUTC,F1_M11,P_M11,Q1_M11,Q2_M11,T1_M11,T2_M11,T3_M11,T4_M11,T5_M11,U1_M11,ZSPAN_M11,X0_M11,X2_M11,X1_M11
2023-02-19 17:00:00,,0821.6,5.01,0.00,21.2,19.3,00.0,30.3,22.5,13.4,0000.0,0007.22,0002.45,0001.39
2023-02-19 17:01:00,,0821.6,5.02,0.00,21.1,19.2,00.0,30.3,22.5,13.6,0000.0,0007.40,0002.51,0001.39
2023-02-19 17:02:00,,0821.7,5.01,0.00,21.0,19.2,00.0,30.2,22.4,13.9,0000.0,0007.54,0002.49,0001.39
2023-02-19 17:03:00,,0821.6,5.02,0.00,21.0,20.2,00.0,30.2,22.6,13.9,0000.0,0008.17,0002.51,0001.39
2023-02-19 17:04:00,,0821.6,4.95,0.00,21.2,21.9,00.0,30.1,23.1,13.6,0000.0,0008.27,0002.49,0001.38
2023-02-19 17:05:00,,0821.6,4.94,0.00,21.4,22.2,00.0,30.2,23.2,13.6,0000.0,0008.32,0002.43,0001.36
2023-02-19 17:06:00,,0821.5,5.00,0.00,21.4,21.5,00.0,30.2,23.1,13.7,0000.0,0008.37,0002.37,0001.35
2023-02-19 17:07:00,,0821.5,5.00,0.00,21.3,20.9,00.0,30.3,22.9,13.7,0000.0,0008.11,0002.26,0001.34
2023-02-19 17:08:00,,0821.6,4.99,0.00,21.3,20.4,00.0,30.3,22.8,13.6,0000.0,0007.70,0002.27,0001.35
2023-02-19 17:09:00,,0821.5,5.01,0.00,21.2,20.0,00.0,30.3,22.7,13.6,0000.0,0007.59,0002.23,0001.35
2023-02-19 17:10:00,,0821.5,5.02,0.00,21.2,19.7,00.0,30.3,22.6,13.7,0000.0,0007.77,0002.29,0001.35
2023-02-19 17:11:00,,0821.4,5.02,0.00,21.1,19.5,00.0,30.3,22.6,13.8,0000.0,0007.99,0002.27,0001.34
2023-02-19 17:12:00,,0821.4,5.00,0.00,21.1,19.3,00.0,30.2,22.5,13.8,0000.0,0007.96,0002.26,0001.33
2023-02-19 17:13:00,,0821.5,5.00,0.00,21.0,19.2,00.0,30.2,22.5,13.9,0000.0,0007.98,0002.22,0001.31
2023-02-19 17:14:00,,0821.6,5.01,0.00,21.0,19.9,00.0,30.1,22.6,14.0,0000.0,0007.37,0002.21,0001.31
2023-02-19 17:15:00,,0821.6,4.98,0.00,21.2,21.5,00.0,30.1,23.0,13.9,0000.0,0008.34,0002.22,0001.30
2023-02-19 17:16:00,,0821.6,5.03,0.00,21.4,22.2,00.0,30.1,23.3,13.7,0000.0,0008.17,0002.17,0001.30
2023-02-19 17:17:00,,0821.5,4.97,0.00,21.4,21.6,00.0,30.2,23.2,13.8,0000.0,0008.11,0002.20,0001.29
2023-02-19 17:18:00,,0821.6,5.01,0.00,21.4,21.0,00.0,30.2,23.0,13.8,0000.0,0007.53,0002.23,0001.29
2023-02-19 17:19:00,,0821.6,4.99,0.00,21.3,20.6,00.0,30.3,22.9,13.9,0000.0,0007.47,0002.20,0001.28
2023-02-19 17:20:00,,0821.6,5.01,0.00,21.3,20.3,00.0,30.3,22.9,13.8,0000.0,0007.44,0002.17,0001.26
2023-02-19 17:21:00,,0821.5,4.99,0.00,21.3,20.0,00.0,30.3,22.8,13.9,0000.0,0007.30,0002.09,0001.25
2023-02-19 17:22:00,,0821.5,4.98,0.00,21.2,19.8,00.0,30.3,22.7,13.8,0000.0,0006.68,0002.11,0001.26
2023-02-19 17:23:00,,0821.5,5.00,0.00,21.2,19.6,00.0,30.2,22.6,13.9,0000.0,0006.68,0002.06,0001.25
2023-02-19 17:24:00,,0821.4,5.00,0.00,21.1,19.5,00.0,30.2,22.6,13.8,0000.0,0006.17,0002.08,0001.26
2023-02-19 17:25:00,,0821.4,5.01,0.00,21.1,19.4,00.0,30.2,22.5,13.8,0000.0,0006.04,0002.08,0001.25
2023-02-19 17:26:00,,0821.5,5.00,0.00,21.0,19.3,00.0,30.2,22.5,13.8,0000.0,0004.38,0002.10,0001.26
2023-02-19 17:27:00,,0821.6,5.00,0.00,21.1,20.4,00.0,30.1,22.7,13.8,0000.0,0005.80,0002.16,0001.26
2023-02-19 17:28:00,,0821.6,5.01,0.00,21.2,22.0,00.0,30.1,23.1,13.7,0000.0,0005.99,0002.15,0001.25
2023-02-19 17:29:00,,0821.5,4.94,0.00,21.4,22.3,00.0,30.1,23.3,13.5,0000.0,0005.73,0002.10,0001.24
2023-02-19 17:30:00,,0821.5,5.02,0.00,21.4,21.7,00.0,30.2,23.2,13.8,0000.0,0005.86,0002.11,0001.24
2023-02-19 17:31:00,,0821.5,4.98,0.00,21.4,21.1,00.0,30.2,23.1,13.7,0000.0,0005.88,0002.12,0001.24
2023-02-19 17:32:00,,0821.6,5.00,0.00,21.4,20.7,00.0,30.3,23.0,13.7,0000.0,0006.67,0002.22,0001.24
2023-02-19 17:33:00,,0821.6,5.00,0.00,21.3,20.3,00.0,30.3,22.9,13.6,0000.0,0007.00,0002.21,0001.24
2023-02-19 17:34:00,,0821.6,5.02,0.00,21.3,20.1,00.0,30.3,22.8,13.8,0000.0,0007.01,0002.20,0001.24
2023-02-19 17:35:00,,0821.6,5.01,0.00,21.3,20.0,00.0,30.3,22.8,14.1,0000.0,0007.36,0002.19,0001.25
2023-02-19 17:36:00,,0821.6,5.00,0.00,21.3,19.9,00.0,30.3,22.8,14.1,0000.0,0007.31,0002.17,0001.26
2023-02-19 17:37:00,,0821.6,5.00,0.00,21.2,19.8,00.0,30.3,22.8,13.9,0000.0,0007.09,0002.17,0001.26
2023-02-19 17:38:00,,0821.5,5.01,0.00,21.2,19.7,00.0,30.3,22.7,13.6,0000.0,0005.78,0002.14,0001.26
2023-02-19 17:39:00,,0821.6,5.03,0.00,21.2,19.6,00.0,30.2,22.7,13.8,0000.0,0005.38,0002.14,0001.27
2023-02-19 17:40:00,,0821.5,5.02,0.00,21.2,19.6,00.0,30.2,22.7,13.9,0000.0,0005.48,0002.15,0001.27
2023-02-19 17:41:00,,0821.4,5.02,0.00,21.2,19.7,00.0,30.2,22.8,13.6,0000.0,0005.43,0002.14,0001.26
2023-02-19 17:42:00,,0821.4,5.00,0.00,21.2,19.7,00.0,30.2,22.9,13.5,0000.0,0005.67,0002.12,0001.27
2023-02-19 17:43:00,,0821.4,4.99,0.00,21.2,19.8,00.0,30.2,22.9,13.6,0000.0,0005.40,0002.08,0001.27
2023-02-19 17:44:00,,0821.4,4.99,0.00,21.2,19.8,00.0,30.2,22.8,13.6,0000.0,0004.93,0002.07,0001.27
2023-02-19 17:45:00,,0821.4,5.01,0.00,21.2,19.7,00.0,30.2,22.8,13.6,0000.0,0004.96,0002.10,0001.28
2023-02-19 17:46:00,,0821.4,5.01,0.00,21.2,19.7,00.0,30.2,22.8,13.5,0000.0,0004.62,0002.16,0001.28
2023-02-19 17:47:00,,0821.4,5.00,0.00,21.2,19.6,00.0,30.2,22.8,13.4,0000.0,0004.63,0002.15,0001.28
2023-02-19 17:48:00,,0821.4,4.99,0.00,21.2,19.6,00.0,30.2,22.8,13.4,0000.0,0004.65,0002.14,0001.30
2023-02-19 17:49:00,,0821.4,5.03,0.00,21.2,19.6,00.0,30.2,22.8,13.6,0000.0,0004.99,0002.23,0001.30
2023-02-19 17:50:00,,0821.4,5.00,0.00,21.2,19.9,00.0,30.1,22.9,13.3,0000.0,0005.29,0002.23,0001.31
2023-02-19 17:51:00,,0821.4,5.05,0.00,21.3,21.4,00.0,30.1,23.2,13.3,0000.0,0005.19,0002.24,0001.33
2023-02-19 17:52:00,,0821.4,4.99,0.00,21.5,22.5,00.0,30.1,23.5,13.3,0000.0,0005.21,0002.27,0001.35
2023-02-19 17:53:00,,0821.4,4.91,0.00,21.6,22.1,00.0,30.2,23.5,13.3,0000.0,0004.88,0002.28,0001.36
2023-02-19 17:54:00,,0821.4,5.01,0.00,21.6,21.6,00.0,30.2,23.4,13.3,0000.0,0004.69,0002.27,0001.36
2023-02-19 17:55:00,,0821.4,4.99,0.00,21.5,21.1,00.0,30.3,23.3,13.3,0000.0,0004.63,0002.27,0001.36
2023-02-19 17:56:00,,0821.4,4.99,0.00,21.5,20.8,00.0,30.3,23.2,13.3,0000.0,0004.84,0002.27,0001.37
2023-02-19 17:57:00,,0821.4,5.00,0.00,21.5,20.6,00.0,30.3,23.2,13.4,0000.0,0005.14,0002.23,0001.37
2023-02-19 17:58:00,,0821.4,4.99,0.00,21.5,20.5,00.0,30.4,23.3,13.4,0000.0,0005.29,0002.30,0001.37
2023-02-19 17:59:00,,0821.4,5.02,0.00,21.5,20.4,00.0,30.4,23.2,13.7,0000.0,0005.36,0002.33,0001.38
